Flag for Norway Weather past 2 weeks in Fredrikstad, Norway

Now
86 °F

Passing clouds.


Feels Like: 84 °F
Forecast: 63 / 81 °F
Wind: 6 mph from West

Location: Rygge

Current Time: Jul 25, 2014 at 4:04:12 PM

Latest Report: Jul 25, 2014 at 3:20 PM


Visibility: N/A

Pressure: 30.15 "Hg

Humidity: 33%

Dew point: 54 °F

Location of FredrikstadLocation

Historic Weather in Fredrikstad — Graph

°F

Fredrikstad temperature yesterday

Maximum temperature yesterday: 90 °F (at 3:20 PM)
Minimum temperature yesterday: 64 °F (at 5:20 AM)
Average temperature yesterday: 76 °F

Past Weeks' High & Low Weather Summary

 TemperatureHumidityPressure
High91 °F (Jul 23, 5:20 PM)100% (Jul 17, 2:20 AM)30.30 "Hg (Jul 17, 2:20 AM)
Low54 °F (Jul 19, 4:50 AM)26% (Jul 23, 5:50 PM)29.62 "Hg (Jul 13, 8:50 PM)
Average70 °F63%30.04 "Hg
* Reported Jul 10 2:20 PM — Jul 25 2:20 PM, Fredrikstad, Weather by CustomWeather, © 2014

Note: Actual official high and low records may vary slightly from our data, if they occured in-between our weather recording intervals... More about our weather records

Advertising

Fredrikstad weather history for previous 24 hours

 ConditionsComfort  
Time TempWeatherWind HumidityBarometerVisibility
2:20 PM
Jul 25
86 °FPassing clouds.7 mph38%30.15 "HgN/A
1:50 PM86 °FPassing clouds.7 mph40%30.18 "HgN/A
1:20 PM84 °FPassing clouds.7 mph43%30.18 "HgN/A
12:50 PM86 °FSunny.3 mph38%30.18 "Hg10 mi
12:20 PM86 °FSunny.3 mph40%30.18 "Hg10 mi
11:50 AM84 °FSunny.3 mph40%30.18 "Hg10 mi
11:20 AM82 °FPassing clouds.5 mph42%30.18 "HgN/A
10:50 AM81 °FPassing clouds.5 mph48%30.21 "HgN/A
10:20 AM79 °FPassing clouds.6 mph51%30.21 "HgN/A
9:50 AM79 °FSunny.5 mph51%30.21 "Hg10 mi
9:20 AM75 °FPassing clouds.6 mph57%30.18 "HgN/A
8:50 AM73 °FSunny.7 mph61%30.21 "Hg10 mi
8:20 AM73 °FPassing clouds.7 mph61%30.21 "HgN/A
7:50 AM72 °FPassing clouds.6 mph69%30.21 "HgN/A
7:20 AM70 °FPassing clouds.6 mph73%30.21 "HgN/A
6:50 AM68 °FSunny.6 mph78%30.21 "Hg10 mi
6:20 AM66 °FSunny.6 mph83%30.21 "Hg10 mi
5:50 AM64 °FPassing clouds.5 mph88%30.21 "HgN/A
5:20 AM64 °FPassing clouds.5 mph83%30.21 "HgN/A
4:50 AM63 °FPassing clouds.3 mph88%30.21 "HgN/A
4:20 AM64 °FMild.3 mph83%30.21 "HgN/A
3:50 AM64 °FPassing clouds.3 mph83%30.21 "HgN/A
3:17 AM66 °FClear.6 mph78%30.21 "Hg10 mi
2:20 AM64 °FClear.5 mph83%30.21 "Hg10 mi
1:50 AM64 °FPassing clouds.5 mph78%30.21 "HgN/A
1:20 AM66 °FPassing clouds.3 mph78%30.21 "HgN/A
12:50 AM68 °FClear.6 mph69%30.21 "Hg10 mi
12:20 AM70 °FClear.7 mph64%30.21 "Hg10 mi
11:50 PM
Jul 24
70 °FClear.7 mph64%30.21 "Hg10 mi
11:20 PM70 °FClear.7 mph69%30.21 "Hg10 mi
10:50 PM72 °FSunny.3 mph61%30.18 "Hg10 mi
10:20 PM72 °FPassing clouds.6 mph61%30.18 "HgN/A
9:50 PM73 °FPassing clouds.5 mph57%30.18 "HgN/A
9:20 PM73 °FPartly sunny.7 mph57%30.15 "HgN/A
8:50 PM75 °FBroken clouds.8 mph54%30.15 "HgN/A
8:20 PM75 °FPartly sunny.12 mph50%30.15 "HgN/A
7:50 PM77 °FPassing clouds.13 mph47%30.18 "HgN/A
7:20 PM79 °FScattered clouds.10 mph51%30.18 "HgN/A
6:50 PM81 °FScattered clouds.13 mph45%30.15 "HgN/A
6:20 PM88 °FBroken clouds.3 mph33%30.15 "HgN/A
5:50 PM88 °FPartly sunny.6 mph35%30.15 "HgN/A
5:20 PM84 °FPartly sunny.2 mph40%30.15 "HgN/A
4:50 PM81 °FPartly sunny.3 mph48%30.15 "HgN/A
4:20 PM86 °FScattered showers. Cloudy.3 mph33%30.15 "HgN/A
Weather by CustomWeather, © 2014

See weather overviewHow to use our weather pages